Regional Weather Roundup
Issued by NWS

Home | Current Version | Previous Version | Text Only | Print | Product List | Glossary Off
Versions: 1 2 3 4 5 6 7 8 9 10 11 12 13 14 15 16 17 18 19 20 21 22 23 24 25 26 27 28 29 30 31 32 33 34 35 36 37 38 39 40 41 42 43 44 45 46 47 48 49 50

000
ASUS44 KMEG 281000
RWRTN
TENNESSEE HOURLY STATE WEATHER ROUNDUP
NATIONAL WEATHER SERVICE MEMPHIS TN
500 AM CDT FRI AUG 28 2015

TNZ002-004-019-021-049-052-054-088>092-281100-
WEST TENNESSEE

CITY           SKY/WX    TMP DP  RH WIND       PRES   REMARKS
MEMPHIS INTL   PTCLDY    66  59  78 NE3       30.05S
NWS MEMPHIS      N/A     59 N/A N/A MISG        N/A
JACKSON        CLEAR     56  54  93 CALM      30.07R FOG
DYERSBURG      CLEAR    N/A N/A N/A MISG        N/A
UNION CITY     MOCLDY   N/A N/A N/A CALM      30.08R VSB 1/4
PARIS          CLEAR     55  54  94 NE3       30.10R
LEXINGTON      PTCLDY    57  55  94 CALM      30.06F
$$

TNZ008-025-027-028-033-062-065-066-281100-
NORTH MIDDLE TENNESSEE

CITY           SKY/WX    TMP DP  RH WIND       PRES   REMARKS
NASHVILLE      PTCLDY    64  56  75 CALM      30.10R
CLARKSVILLE    CLEAR     56  54  93 CALM      30.10R
COOKEVILLE     CLEAR     55  55 100 CALM      30.10R
CROSSVILLE     CLEAR     58  55  90 CALM      30.14S
$$

TNZ061-075-076-078-094-096-097-281100-
SOUTH MIDDLE TENNESSEE

CITY           SKY/WX    TMP DP  RH WIND       PRES   REMARKS
FAYETTEVILLE   CLEAR     63  57  82 CALM      30.08S
TULLAHOMA      CLEAR     61  55  82 CALM      30.10R
WINCHESTER     CLEAR     63  59  88 E3        30.09R
MCMINNVILLE    CLEAR     59  59 100 NE3       30.10S
COLUMBIA       CLEAR     59  59 100 CALM      30.08R
SHELBYVILLE    CLEAR     61  59  94 CALM      30.10R
$$

TNZ017-018-042-046-047-281100-
NORTHEAST TENNESSEE

CITY           SKY/WX    TMP DP  RH WIND       PRES   REMARKS
TRI CITIES     PTCLDY    57  56  96 CALM      30.15R
ELIZABETHTON   SUNNY     57  57 100 E5        30.16R
$$

TNZ012-013-036-069-073-074-281100-
CENTRAL EAST TENNESSEE

CITY           SKY/WX    TMP DP  RH WIND       PRES   REMARKS
KNOXVILLE      PTCLDY    64  60  87 NE3       30.10S
OAK RIDGE      CLEAR     63  59  87 CALM      30.13R
GATLINBURG     SUNNY     61  59  94 CALM      30.11R
$$

TNZ083-085-099-281100-
SOUTHEAST TENNESSEE

CITY           SKY/WX    TMP DP  RH WIND       PRES   REMARKS
CHATTANOOGA    PTCLDY    68  61  78 NE3       30.10R
$$

SKY/WX REPORTED AS FAIR MEANS FEW OR NO CLOUDS BELOW
12 THOUSAND FEET.



USA.gov is the U.S. government's official web portal to all federal, state and local government web resources and services.